(289385) = 2000 WR80 = 2005 CO28 = 2005 EQ228 = 2005 FM9

Discovered at Kitt Peak on 2005-02-01 by Spacewatch.

Orbit

Orbit type: Main Belt

Note: WebGL enabled browser required.

epoch2023-02-25.0
epoch JD2460000.5
perihelion date2022-07-29.62602
perihelion JD2459790.12602
argument of perihelion (°)52.99264
ascending node (°)8.46293
inclination (°)2.53024
eccentricity0.1947977
perihelion distance (AU)1.8967915
Tisserand w.r.t. Jupiter3.5
ΔV w.r.t. Earth (km/sec)8.6
semimajor axis (AU)2.3556706
mean anomaly (°)57.34876
mean daily motion (°/day)0.27260390
aphelion distance (AU)2.815
period (years)3.62
P-vector [x]0.47795481
P-vector [y]0.79122952
P-vector [z]0.38146436
Q-vector [x]-0.87836040
Q-vector [y]0.42730730
Q-vector [z]0.21422298
absolute magnitude17.79
phase slope0.15
uncertainty0
referenceMPEC 2023-D50
observations used292
oppositions12
arc length (days)22795
first opposition used1960
last opposition used2023
residual rms (arc-secs)0.83
perturbers coarse indicatorM-v
perturbers precise indicator003Ek
first observation date used1960-09-24.0
last observation date used2023-02-21.0
computer nameMPCLINUX
JD of orbit computation2456966.790183
perihelion JD uncertainty (days)8.7057E-05
argument of perihelion uncertainty (°)1.2030E-04
ascending node uncertainty (°)1.1743E-04
inclination uncertainty (°)4.6684E-06
eccentricity uncertainty 3.6949E-08
perihelion distance uncertainty (AU)8.6696E-08
Minimum Orbit Intersection Distances (in AU)
for orbit epoch: 2460000.5, reference: E2023-D50
Mercury1.5864
Venus1.17666
Earth0.9095
Mars0.36615
Jupiter2.51566
Saturn7.01887
Uranus15.8942
Neptune27.6954

Observations

295 total observations over interval: 1960 09 24.43750 – 2023 02 21.743335
These data are available for download (format description).

Date (UT) J2000 RA J2000 Dec Magn Location Ref
1960 09 24.43750 00 46 23.51 +04 48 24.5 20.8   675 – Palomar Mountain MPS 284332
1960 09 24.46180 00 46 22.23 +04 48 19.7 20.4   675 – Palomar Mountain MPS 284332
1960 09 26.35694 00 44 40.78 +04 41 24.7 20.5   675 – Palomar Mountain MPS 284332
1960 09 26.37986 00 44 39.46 +04 41 20.2 20.2   675 – Palomar Mountain MPS 284332
1960 09 28.41742 00 42 46.95 +04 33 36.4 20.9   675 – Palomar Mountain MPS 284332
1960 09 28.43819 00 42 45.76 +04 33 31.3 19.9   675 – Palomar Mountain MPS 284332
1960 09 29.37153 00 41 53.67 +04 29 55.3 19.5 V 675 – Palomar Mountain MPS 284332
1960 09 29.39514 00 41 52.29 +04 29 49.1 19.7 V 675 – Palomar Mountain MPS 284332
1960 10 26.33646 00 18 38.70 +02 55 03.4 20.4   675 – Palomar Mountain MPS 284332
1960 10 26.35764 00 18 38.00 +02 55 00.8 19.6   675 – Palomar Mountain MPS 284332
1994 01 21.27035 08 05 39.91 +24 57 29.8 19.6 V 691 – Steward Observatory, Kitt Peak-Spacewatch MPS 215136
1994 01 21.30655 08 05 37.37 +24 57 34.6   691 – Steward Observatory, Kitt Peak-Spacewatch MPS 215136
1994 01 21.34187 08 05 34.76 +24 57 39.3   691 – Steward Observatory, Kitt Peak-Spacewatch MPS 215136
2000 11 20.29779 04 14 08.66 +25 30 39.9 19.1   704 – Lincoln Laboratory ETS, New Mexico MPS 22932
2000 11 20.31334 04 14 07.59 +25 30 40.6 19.5   704 – Lincoln Laboratory ETS, New Mexico MPS 22932
2000 11 20.32834 04 14 06.57 +25 30 39.1 19.4   704 – Lincoln Laboratory ETS, New Mexico MPS 22932
2000 11 20.34336 04 14 05.73 +25 30 38.8 18.9   704 – Lincoln Laboratory ETS, New Mexico MPS 22932
2000 11 20.35839 04 14 04.82 +25 30 37.9 19.5   704 – Lincoln Laboratory ETS, New Mexico MPS 22932
2000 11 29.30193 04 04 43.66 +25 19 00.0 19.2   704 – Lincoln Laboratory ETS, New Mexico MPS 22932
2000 11 29.31827 04 04 42.68 +25 18 58.7 19.5   704 – Lincoln Laboratory ETS, New Mexico MPS 22932
2000 11 29.33473 04 04 41.52 +25 18 57.0 19.6   704 – Lincoln Laboratory ETS, New Mexico MPS 22932
2004 12 20.40111 10 21 53.47 +13 36 46.7 22.0 R G96 – Mt. Lemmon Survey MPS 137063
2004 12 20.41466 10 21 53.77 +13 36 44.9 20.4 R G96 – Mt. Lemmon Survey MPS 137063
2004 12 20.42840 10 21 54.06 +13 36 43.6 19.9 R G96 – Mt. Lemmon Survey MPS 137063
2004 12 20.44212 10 21 54.36 +13 36 42.8 20.8 R G96 – Mt. Lemmon Survey MPS 137063
2005 02 01.30598 10 07 21.47 +15 07 07.2 20.4 V 691 – Steward Observatory, Kitt Peak-Spacewatch MPS 126441
2005 02 01.33484 10 07 19.71 +15 07 15.0 20.3 V 691 – Steward Observatory, Kitt Peak-Spacewatch MPS 126441
2005 02 01.36067 10 07 18.15 +15 07 22.6 21.0 V 691 – Steward Observatory, Kitt Peak-Spacewatch MPS 126441
2005 02 04.35895 10 04 18.87 +15 21 25.4 19.5 R G96 – Mt. Lemmon Survey MPS 126441
2005 02 04.36687 10 04 18.36 +15 21 27.8 19.5 R G96 – Mt. Lemmon Survey MPS 126441
2005 02 04.37482 10 04 17.84 +15 21 29.8 19.8 R G96 – Mt. Lemmon Survey MPS 126441
2005 02 04.38277 10 04 17.33 +15 21 32.3 20.1 R G96 – Mt. Lemmon Survey MPS 126441
2005 03 10.24476 09 32 01.04 +17 16 26.2 20.9 R G96 – Mt. Lemmon Survey MPS 129353
2005 03 10.25274 09 32 00.72 +17 16 26.8 20.5 R G96 – Mt. Lemmon Survey MPS 129353
2005 03 10.26076 09 32 00.41 +17 16 27.2 20.1 R G96 – Mt. Lemmon Survey MPS 129353
2005 03 10.26871 09 32 00.08 +17 16 28.0 20.1 R G96 – Mt. Lemmon Survey MPS 129353
2005 03 16.25103 09 28 45.94 +17 20 38.0 20.8 R G96 – Mt. Lemmon Survey MPC 54935
2005 03 16.25769 09 28 45.73 +17 20 37.9 20.9 R G96 – Mt. Lemmon Survey MPC 54935
2005 03 16.26432 09 28 45.54 +17 20 37.1 20.2 R G96 – Mt. Lemmon Survey MPC 54935
2005 03 16.27098 09 28 45.36 +17 20 37.7 20.0 R G96 – Mt. Lemmon Survey MPC 54935
2007 09 10.38330 00 51 25.77 +04 51 15.9 19.8 V G96 – Mt. Lemmon Survey MPS 215136
2007 09 10.39151 00 51 25.48 +04 51 14.9 20.1 V G96 – Mt. Lemmon Survey MPS 215136
2007 09 10.39954 00 51 25.20 +04 51 13.9 20.1 V G96 – Mt. Lemmon Survey MPS 215136
2007 09 10.40753 00 51 24.91 +04 51 13.1 19.4 V G96 – Mt. Lemmon Survey MPS 215136
2007 10 06.20581 00 29 58.51 +03 24 12.5 19.5   704 – Lincoln Laboratory ETS, New Mexico MPS 218658
2007 10 06.21666 00 29 57.84 +03 24 09.8 20.3   704 – Lincoln Laboratory ETS, New Mexico MPS 218658
2007 10 06.23843 00 29 56.57 +03 24 04.5 20.3   704 – Lincoln Laboratory ETS, New Mexico MPS 218658
2007 10 06.24926 00 29 55.89 +03 24 02.3 20.1   704 – Lincoln Laboratory ETS, New Mexico MPS 218658
2007 10 11.22383 00 25 13.48 +03 03 59.6 19.5   704 – Lincoln Laboratory ETS, New Mexico MPS 220527
2007 10 11.23484 00 25 12.85 +03 03 57.1 19.4   704 – Lincoln Laboratory ETS, New Mexico MPS 220527
2007 10 11.24585 00 25 12.26 +03 03 54.4 19.9   704 – Lincoln Laboratory ETS, New Mexico MPS 220527
2007 10 14.20172 00 22 31.51 +02 52 39.0 19.5   704 – Lincoln Laboratory ETS, New Mexico MPS 220527
2007 10 14.22403 00 22 30.22 +02 52 33.0 20.3   704 – Lincoln Laboratory ETS, New Mexico MPS 220527
2007 10 14.23509 00 22 29.63 +02 52 31.4 20.3   704 – Lincoln Laboratory ETS, New Mexico MPS 220527
2007 10 14.24615 00 22 28.98 +02 52 29.2 20.1   704 – Lincoln Laboratory ETS, New Mexico MPS 220527
2007 10 19.21751 00 18 18.42 +02 35 22.2 20.0   704 – Lincoln Laboratory ETS, New Mexico MPS 222519
2007 10 19.22829 00 18 17.85 +02 35 19.9 19.7   704 – Lincoln Laboratory ETS, New Mexico MPS 222519
2007 10 19.23917 00 18 17.34 +02 35 17.7 20.4   704 – Lincoln Laboratory ETS, New Mexico MPS 222519
2007 10 30.24670 00 11 11.76 +02 09 28.9 20.1 V G96 – Mt. Lemmon Survey MPS 223448
2007 10 30.25494 00 11 11.50 +02 09 28.2 19.8 V G96 – Mt. Lemmon Survey MPS 223448
2007 10 30.26325 00 11 11.25 +02 09 27.3 19.8 V G96 – Mt. Lemmon Survey MPS 223448
2007 10 30.27155 00 11 11.00 +02 09 27.2 20.1 V G96 – Mt. Lemmon Survey MPS 223448
2007 12 04.15664 00 15 25.88 +03 19 48.7 20.8 V G96 – Mt. Lemmon Survey MPS 229810
2007 12 04.16318 00 15 26.10 +03 19 50.8 20.5 V G96 – Mt. Lemmon Survey MPS 229810
2007 12 04.16978 00 15 26.35 +03 19 52.3 20.6 V G96 – Mt. Lemmon Survey MPS 229810
2007 12 04.17634 00 15 26.64 +03 19 54.5 21.1 V G96 – Mt. Lemmon Survey MPS 229810
2011 12 27.18441 07 02 02.26 +27 44 43.0 19.7 V 691 – Steward Observatory, Kitt Peak-Spacewatch MPS 405858
2011 12 27.20224 07 02 01.04 +27 44 45.3 19.7 V 691 – Steward Observatory, Kitt Peak-Spacewatch MPS 405858
2011 12 27.22005 07 01 59.81 +27 44 47.7 20.0 V 691 – Steward Observatory, Kitt Peak-Spacewatch MPS 405858
2012 01 04.18863 06 52 58.56 +27 56 00.5   691 – Steward Observatory, Kitt Peak-Spacewatch MPS 407130
2012 01 04.20988 06 52 57.04 +27 56 01.9   691 – Steward Observatory, Kitt Peak-Spacewatch MPS 407130
2012 01 04.22560 06 52 55.93 +27 56 03.1   691 – Steward Observatory, Kitt Peak-Spacewatch MPS 407130
2012 01 15.51919 06 40 53.833 +27 58 55.67 19.6 i F51 – Pan-STARRS 1, Haleakala MPS 408712
2012 01 15.53191 06 40 53.068 +27 58 55.11 20.0 i F51 – Pan-STARRS 1, Haleakala MPS 408712
2012 01 16.30985 06 40 09.711 +27 58 34.70 20.4 g F51 – Pan-STARRS 1, Haleakala MPS 408712
2012 01 16.32203 06 40 09.001 +27 58 34.54 20.1 g F51 – Pan-STARRS 1, Haleakala MPS 408712
2012 01 16.33529 06 40 08.206 +27 58 34.25 19.7 r F51 – Pan-STARRS 1, Haleakala MPS 408712
2012 01 16.34693 06 40 07.510 +27 58 33.91 19.7 r F51 – Pan-STARRS 1, Haleakala MPS 408712
2014 06 28.52302 22 33 11.486 -12 12 36.91 21.5 w F51 – Pan-STARRS 1, Haleakala MPS 522089
2014 06 28.53510 22 33 11.662 -12 12 36.17 21.6 w F51 – Pan-STARRS 1, Haleakala MPS 522089
2014 06 28.54715 22 33 11.859 -12 12 35.57 21.4 w F51 – Pan-STARRS 1, Haleakala MPS 522089
2014 07 25.52380 22 30 43.416 -12 38 29.42 21.3 w F51 – Pan-STARRS 1, Haleakala MPS 525239
2014 07 25.53591 22 30 43.057 -12 38 31.58 21.6 w F51 – Pan-STARRS 1, Haleakala MPS 525239
2014 07 25.54803 22 30 42.679 -12 38 33.66 21.0 w F51 – Pan-STARRS 1, Haleakala MPS 525239
2014 07 25.56014 22 30 42.306 -12 38 35.62 20.8 w F51 – Pan-STARRS 1, Haleakala MPS 525239
2014 07 28.05005 22 29 26.23 -12 46 14.5 20.9 R J04 – ESA Optical Ground Station, Tenerife MPS 527870
2014 07 28.06174 22 29 25.75 -12 46 16.2 19.6 R J04 – ESA Optical Ground Station, Tenerife MPS 527870
2014 07 28.07343 22 29 25.31 -12 46 18.3 21.4 R J04 – ESA Optical Ground Station, Tenerife MPS 527870
2014 08 03.48833 22 25 22.024 -13 09 18.56 21.1 w F51 – Pan-STARRS 1, Haleakala MPS 526410
